Time,TemperatureF,DewpointF,PressureIn,WindDirection,WindDirectionDegrees,WindSpeedMPH,WindSpeedGustMPH,Humidity,HourlyPrecipIn,Conditions,Clouds,dailyrainin,SoftwareType,DateUTC
2013-02-21 00:01:00,14.0,10.0,-100.00,ESE,110,11.0,16.0,83,0.00,,,0.00,,2013-02-21 06:01:00,
2013-02-21 00:11:00,14.0,10.0,-100.00,ESE,115,13.0,16.0,84,0.00,,,0.00,,2013-02-21 06:11:00,
2013-02-21 00:21:00,14.0,10.0,-100.00,ESE,120,11.0,14.0,84,0.00,,,0.00,,2013-02-21 06:21:00,
2013-02-21 00:31:00,14.0,10.0,-100.00,ESE,110,8.0,14.0,84,0.00,,,0.00,,2013-02-21 06:31:00,
2013-02-21 00:41:00,13.0,10.0,-100.00,ESE,115,9.0,14.0,85,0.00,,,0.00,,2013-02-21 06:41:00,
2013-02-21 00:51:00,13.0,10.0,-100.00,SE,125,11.0,14.0,85,0.00,,,0.00,,2013-02-21 06:51:00,
2013-02-21 01:01:00,13.0,10.0,-100.00,ESE,120,9.0,13.0,85,0.00,,,0.00,,2013-02-21 07:01:00,
2013-02-21 01:11:00,13.0,10.0,-100.00,SE,125,10.0,14.0,85,0.00,,,0.00,,2013-02-21 07:11:00,
2013-02-21 01:21:00,13.0,10.0,-100.00,SE,125,11.0,15.0,86,0.00,,,0.00,,2013-02-21 07:21:00,
2013-02-21 01:32:00,13.0,10.0,-100.00,ESE,120,11.0,14.0,86,0.00,,,0.00,,2013-02-21 07:32:00,
2013-02-21 01:42:00,13.0,10.0,-100.00,SE,130,10.0,14.0,87,0.00,,,0.00,,2013-02-21 07:42:00,
2013-02-21 01:52:00,13.0,10.0,-100.00,ESE,120,9.0,12.0,87,0.00,,,0.00,,2013-02-21 07:52:00,
2013-02-21 02:01:00,13.0,10.0,-100.00,ESE,120,9.0,12.0,87,0.00,,,0.00,,2013-02-21 08:01:00,
2013-02-21 02:11:00,13.0,10.0,-100.00,ESE,120,8.0,12.0,88,0.00,,,0.00,,2013-02-21 08:11:00,
2013-02-21 02:21:00,13.0,10.0,-100.00,ESE,110,8.0,13.0,88,0.00,,,0.00,,2013-02-21 08:21:00,
2013-02-21 02:32:00,13.0,10.0,-100.00,ESE,105,9.0,14.0,88,0.00,,,0.00,,2013-02-21 08:32:00,
2013-02-21 02:41:00,13.0,10.0,-100.00,East,95,12.0,14.0,88,0.00,,,0.00,,2013-02-21 08:41:00,
2013-02-21 02:52:00,12.0,10.0,-100.00,East,90,12.0,17.0,89,0.00,,,0.00,,2013-02-21 08:52:00,
2013-02-21 03:01:00,12.0,10.0,-100.00,East,100,12.0,16.0,89,0.00,,,0.00,,2013-02-21 09:01:00,
2013-02-21 03:11:00,12.0,10.0,-100.00,East,90,11.0,16.0,89,0.00,,,0.00,,2013-02-21 09:11:00,
2013-02-21 03:22:00,12.0,10.0,-100.00,East,95,12.0,16.0,90,0.00,,,0.00,,2013-02-21 09:22:00,
2013-02-21 03:31:00,12.0,10.0,-100.00,ESE,105,9.0,14.0,90,0.00,,,0.00,,2013-02-21 09:31:00,
2013-02-21 03:41:00,12.0,10.0,-100.00,East,100,9.0,14.0,90,0.00,,,0.00,,2013-02-21 09:41:00,
2013-02-21 03:51:00,11.0,9.0,-100.00,East,85,11.0,14.0,90,0.00,,,0.00,,2013-02-21 09:51:00,
2013-02-21 04:01:00,11.0,9.0,-100.00,East,80,12.0,14.0,91,0.00,,,0.00,,2013-02-21 10:01:00,
2013-02-21 04:11:00,11.0,9.0,-100.00,East,85,12.0,16.0,91,0.00,,,0.00,,2013-02-21 10:11:00,
2013-02-21 04:21:00,11.0,9.0,-100.00,ENE,75,10.0,15.0,92,0.00,,,0.00,,2013-02-21 10:21:00,
2013-02-21 04:31:00,11.0,9.0,-100.00,East,85,11.0,15.0,92,0.00,,,0.00,,2013-02-21 10:31:00,
2013-02-21 04:41:00,11.0,9.0,-100.00,East,80,11.0,14.0,92,0.00,,,0.00,,2013-02-21 10:41:00,
2013-02-21 04:51:00,11.0,10.0,-100.00,East,95,9.0,13.0,92,0.00,,,0.00,,2013-02-21 10:51:00,
2013-02-21 05:01:00,11.0,10.0,-100.00,East,95,7.0,13.0,92,0.00,,,0.00,,2013-02-21 11:01:00,
2013-02-21 05:11:00,11.0,9.0,-100.00,ESE,115,7.0,12.0,92,0.00,,,0.00,,2013-02-21 11:11:00,
2013-02-21 05:21:00,11.0,9.0,-100.00,SE,145,11.0,13.0,92,0.00,,,0.00,,2013-02-21 11:21:00,
2013-02-21 05:31:00,11.0,9.0,-100.00,SE,140,10.0,12.0,92,0.00,,,0.00,,2013-02-21 11:31:00,
2013-02-21 05:41:00,11.0,9.0,-100.00,SE,130,9.0,12.0,92,0.00,,,0.00,,2013-02-21 11:41:00,
2013-02-21 05:51:00,11.0,10.0,-100.00,ESE,115,8.0,12.0,92,0.00,,,0.00,,2013-02-21 11:51:00,
2013-02-21 06:01:00,11.0,10.0,-100.00,ESE,105,7.0,11.0,92,0.00,,,0.00,,2013-02-21 12:01:00,
2013-02-21 06:11:00,11.0,10.0,-100.00,East,85,7.0,12.0,92,0.00,,,0.00,,2013-02-21 12:11:00,
2013-02-21 06:21:00,11.0,9.0,-100.00,East,80,8.0,12.0,92,0.00,,,0.00,,2013-02-21 12:21:00,
2013-02-21 06:32:00,11.0,9.0,-100.00,ENE,75,9.0,13.0,92,0.00,,,0.00,,2013-02-21 12:32:00,
2013-02-21 06:42:00,11.0,9.0,-100.00,ENE,70,7.0,12.0,92,0.00,,,0.00,,2013-02-21 12:42:00,
2013-02-21 06:52:00,11.0,9.0,-100.00,East,90,9.0,12.0,92,0.00,,,0.00,,2013-02-21 12:52:00,
2013-02-21 07:01:00,11.0,9.0,-100.00,ENE,75,12.0,14.0,92,0.00,,,0.00,,2013-02-21 13:01:00,
2013-02-21 07:12:00,11.0,10.0,-100.00,East,80,10.0,14.0,92,0.00,,,0.00,,2013-02-21 13:12:00,
2013-02-21 07:22:00,12.0,10.0,-100.00,East,90,14.0,17.0,91,0.00,,,0.00,,2013-02-21 13:22:00,
2013-02-21 07:32:00,12.0,10.0,-100.00,East,85,12.0,16.0,91,0.00,,,0.00,,2013-02-21 13:32:00,
2013-02-21 07:41:00,12.0,10.0,-100.00,East,85,13.0,17.0,91,0.00,,,0.00,,2013-02-21 13:41:00,
2013-02-21 07:51:00,12.0,10.0,-100.00,East,85,11.0,16.0,90,0.00,,,0.00,,2013-02-21 13:51:00,
2013-02-21 08:02:00,12.0,10.0,-100.00,East,90,9.0,18.0,90,0.00,,,0.00,,2013-02-21 14:02:00,
2013-02-21 08:11:00,13.0,10.0,-100.00,East,90,9.0,16.0,90,0.00,,,0.00,,2013-02-21 14:11:00,
2013-02-21 08:21:00,13.0,10.0,-100.00,East,90,11.0,17.0,89,0.00,,,0.00,,2013-02-21 14:21:00,
2013-02-21 08:32:00,13.0,10.0,-100.00,East,95,13.0,16.0,89,0.00,,,0.00,,2013-02-21 14:32:00,
2013-02-21 08:41:00,14.0,10.0,-100.00,ESE,110,10.0,19.0,88,0.00,,,0.00,,2013-02-21 14:41:00,
2013-02-21 08:52:00,14.0,10.0,-100.00,East,90,12.0,17.0,88,0.00,,,0.00,,2013-02-21 14:52:00,
2013-02-21 09:01:00,14.0,10.0,-100.00,East,95,12.0,19.0,87,0.00,,,0.00,,2013-02-21 15:01:00,
2013-02-21 09:12:00,14.0,10.0,-100.00,East,90,12.0,19.0,87,0.00,,,0.00,,2013-02-21 15:12:00,
2013-02-21 09:21:00,14.0,10.0,-100.00,East,100,14.0,21.0,86,0.00,,,0.00,,2013-02-21 15:21:00,
2013-02-21 09:32:00,15.0,10.0,-100.00,East,95,14.0,19.0,85,0.00,,,0.00,,2013-02-21 15:32:00,
2013-02-21 09:42:00,16.0,12.0,-100.00,ESE,110,9.0,18.0,85,0.00,,,0.00,,2013-02-21 15:42:00,
2013-02-21 09:51:00,16.0,12.0,-100.00,ESE,105,12.0,19.0,83,0.00,,,0.00,,2013-02-21 15:51:00,
2013-02-21 10:01:00,17.0,12.0,-100.00,ESE,115,14.0,19.0,81,0.00,,,0.00,,2013-02-21 16:01:00,
2013-02-21 10:12:00,17.0,12.0,-100.00,ESE,115,12.0,20.0,80,0.00,,,0.00,,2013-02-21 16:12:00,
2013-02-21 10:21:00,18.0,12.0,-100.00,ESE,120,12.0,19.0,79,0.00,,,0.00,,2013-02-21 16:21:00,
2013-02-21 10:32:00,18.0,12.0,-100.00,ESE,110,9.0,18.0,77,0.00,,,0.00,,2013-02-21 16:32:00,
2013-02-21 10:42:00,18.0,12.0,-100.00,ESE,115,12.0,21.0,74,0.00,,,0.00,,2013-02-21 16:42:00,
2013-02-21 10:52:00,19.0,12.0,-100.00,ESE,120,14.0,20.0,72,0.00,,,0.00,,2013-02-21 16:52:00,
2013-02-21 11:01:00,19.0,12.0,-100.00,SE,125,15.0,19.0,71,0.00,,,0.00,,2013-02-21 17:01:00,
2013-02-21 11:11:00,19.0,10.0,-100.00,ESE,120,18.0,21.0,70,0.00,,,0.00,,2013-02-21 17:11:00,
2013-02-21 11:21:00,20.0,10.0,-100.00,SE,125,17.0,20.0,68,0.00,,,0.00,,2013-02-21 17:21:00,
2013-02-21 11:32:00,20.0,10.0,-100.00,ESE,120,16.0,22.0,68,0.00,,,0.00,,2013-02-21 17:32:00,
2013-02-21 11:42:00,20.0,10.0,-100.00,ESE,115,15.0,21.0,66,0.00,,,0.00,,2013-02-21 17:42:00,
2013-02-21 11:52:00,21.0,10.0,-100.00,SE,125,16.0,21.0,66,0.00,,,0.00,,2013-02-21 17:52:00,
2013-02-21 12:02:00,21.0,10.0,-100.00,ESE,115,13.0,18.0,64,0.00,,,0.00,,2013-02-21 18:02:00,
2013-02-21 12:11:00,22.0,12.0,-100.00,East,100,14.0,19.0,64,0.00,,,0.00,,2013-02-21 18:11:00,
2013-02-21 12:22:00,22.0,12.0,-100.00,East,95,12.0,18.0,63,0.00,,,0.00,,2013-02-21 18:22:00,
2013-02-21 12:31:00,22.0,12.0,-100.00,ESE,110,12.0,17.0,62,0.00,,,0.00,,2013-02-21 18:31:00,
2013-02-21 12:42:00,22.0,10.0,-100.00,East,100,12.0,17.0,62,0.00,,,0.00,,2013-02-21 18:42:00,
2013-02-21 12:51:00,22.0,10.0,-100.00,East,100,12.0,21.0,60,0.00,,,0.00,,2013-02-21 18:51:00,
2013-02-21 13:01:00,22.0,10.0,-100.00,East,100,14.0,20.0,60,0.00,,,0.00,,2013-02-21 19:01:00,
2013-02-21 13:12:00,22.0,10.0,-100.00,East,95,14.0,20.0,60,0.00,,,0.00,,2013-02-21 19:12:00,
2013-02-21 13:21:00,22.0,10.0,-100.00,East,80,14.0,20.0,61,0.00,,,0.00,,2013-02-21 19:21:00,
2013-02-21 13:31:00,22.0,10.0,-100.00,East,95,16.0,22.0,61,0.00,,,0.00,,2013-02-21 19:31:00,
2013-02-21 13:41:00,22.0,10.0,-100.00,East,80,16.0,21.0,61,0.00,,,0.00,,2013-02-21 19:41:00,
2013-02-21 13:51:00,22.0,10.0,-100.00,East,80,17.0,21.0,61,0.00,,,0.00,,2013-02-21 19:51:00,
2013-02-21 14:01:00,22.0,10.0,-100.00,East,100,16.0,21.0,60,0.00,,,0.00,,2013-02-21 20:01:00,
2013-02-21 14:11:00,22.0,10.0,-100.00,East,80,17.0,22.0,60,0.00,,,0.00,,2013-02-21 20:11:00,
2013-02-21 14:21:00,22.0,10.0,-100.00,East,80,15.0,23.0,60,0.00,,,0.00,,2013-02-21 20:21:00,
2013-02-21 14:32:00,22.0,12.0,-100.00,East,80,16.0,24.0,62,0.00,,,0.00,,2013-02-21 20:32:00,
2013-02-21 14:41:00,22.0,12.0,-100.00,ENE,75,16.0,22.0,62,0.00,,,0.00,,2013-02-21 20:41:00,
2013-02-21 14:52:00,22.0,12.0,-100.00,ENE,75,15.0,24.0,63,0.00,,,0.00,,2013-02-21 20:52:00,
2013-02-21 15:02:00,22.0,12.0,-100.00,East,80,19.0,24.0,63,0.00,,,0.00,,2013-02-21 21:02:00,
2013-02-21 15:11:00,22.0,12.0,-100.00,East,90,16.0,24.0,63,0.00,,,0.00,,2013-02-21 21:11:00,
2013-02-21 15:21:00,22.0,12.0,-100.00,East,85,17.0,24.0,65,0.00,,,0.00,,2013-02-21 21:21:00,
2013-02-21 15:31:00,22.0,12.0,-100.00,East,85,14.0,23.0,66,0.00,,,0.00,,2013-02-21 21:31:00,
2013-02-21 15:42:00,21.0,12.0,-100.00,ENE,75,16.0,24.0,67,0.00,,,0.00,,2013-02-21 21:42:00,
2013-02-21 15:51:00,21.0,12.0,-100.00,ENE,60,17.0,22.0,68,0.00,,,0.00,,2013-02-21 21:51:00,
2013-02-21 16:01:00,21.0,12.0,-100.00,East,80,17.0,23.0,69,0.00,,,0.00,,2013-02-21 22:01:00,
2013-02-21 16:11:00,21.0,12.0,-100.00,East,80,16.0,21.0,70,0.00,,,0.00,,2013-02-21 22:11:00,
2013-02-21 16:21:00,21.0,12.0,-100.00,ENE,70,15.0,24.0,70,0.00,,,0.00,,2013-02-21 22:21:00,
2013-02-21 16:31:00,21.0,14.0,-100.00,East,80,17.0,22.0,71,0.00,,,0.00,,2013-02-21 22:31:00,
2013-02-21 16:41:00,20.0,14.0,-100.00,ENE,70,15.0,26.0,73,0.00,,,0.00,,2013-02-21 22:41:00,
2013-02-21 16:52:00,20.0,14.0,-100.00,ENE,70,16.0,21.0,74,0.00,,,0.00,,2013-02-21 22:52:00,
2013-02-21 17:01:00,20.0,14.0,-100.00,ENE,65,16.0,21.0,76,0.00,,,0.00,,2013-02-21 23:01:00,
2013-02-21 17:11:00,20.0,14.0,-100.00,ENE,65,17.0,22.0,76,0.00,,,0.00,,2013-02-21 23:11:00,
2013-02-21 17:21:00,20.0,14.0,-100.00,ENE,60,16.0,24.0,78,0.00,,,0.00,,2013-02-21 23:21:00,
2013-02-21 17:31:00,19.0,14.0,-100.00,ENE,60,16.0,22.0,79,0.00,,,0.00,,2013-02-21 23:31:00,
2013-02-21 17:41:00,19.0,14.0,-100.00,ENE,65,19.0,25.0,80,0.00,,,0.00,,2013-02-21 23:41:00,
2013-02-21 17:52:00,18.0,14.0,-100.00,ENE,65,18.0,26.0,83,0.00,,,0.00,,2013-02-21 23:52:00,
2013-02-21 18:01:00,18.0,14.0,-100.00,ENE,60,20.0,24.0,87,0.00,,,0.00,,2013-02-22 00:01:00,
2013-02-21 18:11:00,18.0,16.0,-100.00,NE,50,18.0,25.0,91,0.00,,,0.00,,2013-02-22 00:11:00,
2013-02-21 18:21:00,17.0,16.0,-100.00,NE,55,16.0,24.0,93,0.00,,,0.00,,2013-02-22 00:21:00,
2013-02-21 18:32:00,17.0,16.0,-100.00,ENE,60,18.0,26.0,96,0.00,,,0.00,,2013-02-22 00:32:00,
2013-02-21 18:41:00,16.0,16.0,-100.00,NE,55,16.0,26.0,96,0.00,,,0.00,,2013-02-22 00:41:00,
2013-02-21 18:51:00,16.0,16.0,-100.00,NE,55,17.0,21.0,97,0.00,,,0.00,,2013-02-22 00:51:00,
2013-02-21 19:01:00,16.0,16.0,-100.00,NE,55,17.0,22.0,97,0.00,,,0.00,,2013-02-22 01:01:00,
2013-02-21 19:11:00,16.0,16.0,-100.00,ENE,60,16.0,22.0,97,0.00,,,0.00,,2013-02-22 01:11:00,
2013-02-21 19:21:00,16.0,16.0,-100.00,NE,50,16.0,22.0,96,0.00,,,0.00,,2013-02-22 01:21:00,
2013-02-21 19:32:00,16.0,16.0,-100.00,NE,55,17.0,24.0,96,0.00,,,0.00,,2013-02-22 01:32:00,
2013-02-21 19:42:00,16.0,16.0,-100.00,ENE,60,17.0,24.0,95,0.00,,,0.00,,2013-02-22 01:42:00,
2013-02-21 19:51:00,16.0,14.0,-100.00,NE,50,19.0,24.0,94,0.00,,,0.00,,2013-02-22 01:51:00,
2013-02-21 20:02:00,16.0,14.0,-100.00,ENE,60,19.0,28.0,94,0.00,,,0.00,,2013-02-22 02:02:00,
2013-02-21 20:11:00,16.0,16.0,-100.00,NE,55,17.0,24.0,96,0.00,,,0.00,,2013-02-22 02:11:00,
2013-02-21 20:21:00,16.0,16.0,-100.00,NE,55,19.0,26.0,96,0.00,,,0.00,,2013-02-22 02:21:00,
2013-02-21 20:31:00,16.0,16.0,-100.00,ENE,65,17.0,24.0,96,0.00,,,0.00,,2013-02-22 02:31:00,
2013-02-21 20:42:00,16.0,16.0,-100.00,ENE,60,14.0,23.0,95,0.00,,,0.00,,2013-02-22 02:42:00,
2013-02-21 20:52:00,16.0,16.0,-100.00,ENE,60,16.0,21.0,95,0.00,,,0.00,,2013-02-22 02:52:00,
2013-02-21 21:01:00,16.0,16.0,-100.00,ENE,60,17.0,25.0,95,0.00,,,0.00,,2013-02-22 03:01:00,
2013-02-21 21:11:00,16.0,16.0,-100.00,NE,50,15.0,24.0,95,0.00,,,0.00,,2013-02-22 03:11:00,
2013-02-21 21:21:00,16.0,16.0,-100.00,ENE,60,17.0,22.0,96,0.00,,,0.00,,2013-02-22 03:21:00,
2013-02-21 21:32:00,16.0,16.0,-100.00,ENE,65,14.0,22.0,97,0.00,,,0.00,,2013-02-22 03:32:00,
2013-02-21 21:41:00,16.0,16.0,-100.00,ENE,65,14.0,19.0,97,0.00,,,0.00,,2013-02-22 03:41:00,
2013-02-21 21:51:00,16.0,16.0,-100.00,ENE,60,15.0,20.0,98,0.00,,,0.00,,2013-02-22 03:51:00,
2013-02-21 22:01:00,16.0,16.0,-100.00,ENE,60,15.0,20.0,98,0.00,,,0.00,,2013-02-22 04:01:00,
2013-02-21 22:11:00,16.0,16.0,-100.00,ENE,60,12.0,19.0,98,0.00,,,0.00,,2013-02-22 04:11:00,
2013-02-21 22:21:00,16.0,16.0,-100.00,ENE,60,12.0,17.0,98,0.00,,,0.00,,2013-02-22 04:21:00,
2013-02-21 22:32:00,16.0,16.0,-100.00,NE,55,14.0,20.0,99,0.00,,,0.00,,2013-02-22 04:32:00,
2013-02-21 22:42:00,16.0,16.0,-100.00,NE,55,13.0,19.0,99,0.00,,,0.00,,2013-02-22 04:42:00,
2013-02-21 22:51:00,16.0,16.0,-100.00,NE,55,14.0,17.0,99,0.00,,,0.00,,2013-02-22 04:51:00,
2013-02-21 23:01:00,16.0,16.0,-100.00,ENE,60,14.0,20.0,99,0.00,,,0.00,,2013-02-22 05:01:00,
2013-02-21 23:12:00,16.0,16.0,-100.00,NE,50,15.0,19.0,99,0.00,,,0.00,,2013-02-22 05:12:00,
2013-02-21 23:22:00,16.0,16.0,-100.00,NE,55,14.0,21.0,99,0.00,,,0.00,,2013-02-22 05:22:00,
2013-02-21 23:32:00,16.0,16.0,-100.00,NE,55,17.0,21.0,99,0.00,,,0.00,,2013-02-22 05:32:00,
2013-02-21 23:41:00,16.0,16.0,-100.00,NE,55,16.0,22.0,99,0.00,,,0.00,,2013-02-22 05:41:00,
2013-02-21 23:52:00,16.0,16.0,-100.00,NE,55,16.0,22.0,99,0.00,,,0.00,,2013-02-22 05:52:00,